Track STARLINK-31241 now! 10-day predictions STARLINK-31241 is classified as:
1 59045U 24038Y 24325.92720727 -.00002397 00000-0 -81831-4 0 9990 2 59045 42.9993 178.1676 0000988 255.0046 105.0696 15.25905629 42416